Regional Weather Roundup
Issued by NWS Kansas City/Pleasant Hill, MO

Home | Current Version | Previous Version | Text Only | Print | Product List | Glossary On
Versions: 1 2 3 4 5 6 7 8 9 10 11 12 13 14 15 16 17 18 19 20 21 22 23 24 25 26 27 28 29 30 31 32 33 34 35 36 37 38 39 40 41 42 43 44 45 46 47 48 49 50
000
ASUS43 KEAX 261304
RWREAX

WEATHER ROUNDUP FOR EASTERN KANSAS AND NORTHWEST MISSOURI
NATIONAL WEATHER SERVICE KANSAS CITY/PLEASANT HILL MO
700 AM CST WED NOV 26 2014

KSZ040-057-103>105-MOZ028-029-037-043-261400-
...KANSAS CITY METROPOLITAN AREA...

CITY           SKY/WX    TMP DP  RH WIND       PRES   REMARKS
K.C. INTL      PTCLDY    36  33  89 W7        29.93R WCI  30
K.C. DOWNTOWN  PTCLDY    38  33  82 VRB3      29.94R
LEES SUMMIT    CLOUDY    35  33  92 SW6       29.94R WCI  30
OLATHE - IXD   MOCLDY    35  33  92 SW7       29.95R WCI  29
OLATHE - OJC   MOCLDY    36  34  92 SW6       29.94R WCI  31
LAWRENCE       CLEAR     36  31  82 W8        29.96R WCI  30

$$

MOZ001>008-011>017-020>025-030>033-038>040-044>046-053-054-261400-
...NORTHERN AND CENTRAL MISSOURI...

CITY           SKY/WX    TMP DP  RH WIND       PRES   REMARKS
ST. JOSEPH     PTCLDY    38  32  79 W13       29.92R WCI  30
MOSBY          CLOUDY    34  34 100 CALM      29.92S
WHITEMAN AFB   LGT RAIN  33  32  95 SW10      29.94F WCI  25
CLINTON        DRIZZLE   34  32  93 SW6       29.98F WCI  29
SEDALIA        LGT SNOW  35  31  85 SW10      29.96F FOG     WCI  27
WARSAW         NOT AVBL
MARSHALL       LGT SNOW  36  34  93 S8        29.95F WCI  29
CHILLICOTHE      N/A     34  32  92 VRB5      29.92S WCI  30
MOBERLY        LGT SNOW  34  21  60 S13       29.96R WCI  25
KIRKSVILLE     LGT SNOW  29  28  96 S9        29.94S VSB 3/4 WCI  20

$$

MOZ041-047>049-056>058-063>065-088>090-097-261400-
...EASTERN AND SOUTHERN MISSOURI...

CITY           SKY/WX    TMP DP  RH WIND       PRES   REMARKS
ST. LOUIS INTL MOCLDY    30  25  81 SE9       30.08S WCI  22
SPIRIT OF STL  CLOUDY    29  24  82 VRB5      30.06F WCI  24
COLUMBIA       CLOUDY    32  22  66 S9        29.97S WCI  24
JEFFERSON CITY CLOUDY    31  22  69 E3        29.99F
MEXICO         CLOUDY    32  27  80 SE8       29.97F WCI  25
ROLLA          CLOUDY    34  20  56 SE13      29.96F WCI  25
LEBANON        CLOUDY    36  21  55 S8        29.98R WCI  29
OSAGE BEACH    CLOUDY    36  19  51 S6        29.99R WCI  31
SPRINGFIELD    CLOUDY    37  23  56 S12       29.94S WCI  29
BRANSON        CLOUDY    37  23  56 S6        29.96F WCI  33
NEVADA         LGT RAIN  37  32  81 NW8       30.01S WCI  31
JOPLIN         CLOUDY    41  25  53 NW13      30.00R WCI  34
WEST PLAINS    CLOUDY    33  21  61 S5        29.99F WCI  29

$$

IAZ060-094-KSZ022-034>040-054-083-096-NEZ052-066-093-261400-
...KANSAS...SOUTHEAST NEBRASKA AND IOWA...

CITY           SKY/WX    TMP DP  RH WIND       PRES   REMARKS
TOPEKA         CLOUDY    40  31  70 W9        29.97R WCI  34
MANHATTAN      PTCLDY    40  27  59 VRB7      30.00R
EMPORIA        CLEAR     37  30  75 NW12      29.99R WCI  29
CHANUTE        CLOUDY    37  27  67 NW3       29.99S
WICHITA        CLOUDY    44  29  55 NW15      30.03R
OMAHA          LGT RAIN  39  34  82 NW18G31   29.89R WCI  30
LINCOLN        CLOUDY    38  30  73 NW18G28   29.95R WCI  28
FALLS CITY     CLOUDY    37  31  78 W15       29.92R WCI  28
LAMONI         CLOUDY    33  32  96 S9        29.84S WCI  25
DES MOINES     LGT SNOW  30  27  88 E10       29.88R FOG     WCI  21

$$




USA.gov is the U.S. government's official web portal to all federal, state and local government web resources and services.